Location: Gwatt
(46.7204°N, 7.6223°E)
Time: 09:53:42
(UTC+00:00)

Transit 2A - Pass Details

Date: 15 May 2021
Orbit: 601 x 958 km, 66.7° (Epoch: 15 June)

Event Time Altitude Azimuth Distance (km) Brightness Sun altitude
Exits shadow 02:13:54 11° 270° (W) 1,920 7.7 -14.3°
Maximum altitude 02:17:06 21° 319° (NW) 1,366 7.4 -13.9°
Drops below altitude 10° 02:20:28 10° 10° (N) 1,953 9.0 -13.5°
Sets 02:23:11 0° 27° (NNE) 2,868 10.6 -13.2°
